Dewpoint
-4 -6 -9 -10 -11 -13 -14 -17 -21 -23 -24 -26 -27 -28 -29 -29 -30 -30 -31 -31 -31 -31 -30 -29 -27 -25 -24 -19 -23 -15 -12 -12 -11 -11 -10 -9 -8 -7 -7 -8 -8 -8 -9 -9 -9 -9 -11
-3 -6 -8 -11 -11 -14 -17 -19 -23 -25 -25 -26 -27 -28 -29 -30 -30 -31 -31 -32 -32 -32 -32 -31 -29 -27 -12 -11 -19 -16 -12 -12 -9 -10 -9 -8 -8 -8 -8 -8 -8 -11 -11 -12 -12 -11 -11
-6 -10 -14 -13 -16 -16 -18 -22 -24 -26 -26 -27 -27 -28 -29 -30 -31 -32 -32 -33 -33 -33 -33 -32 -30 -27 -20 -21 -15 -15 -10 -9 -8 -8 -8 -7 -7 -7 -8 -11 -12 -12 -11 -13 -12 -12 -11
-9 -15 -16 -17 -18 -20 -21 -23 -25 -26 -26 -27 -28 -29 -30 -30 -31 -32 -31 -31 -31 -31 -28 -28 -25 -18 -20 -13 -7 -5 -10 -11 -7 -8 -8 -7 -8 -8 -9 -11 -11 -11 -11 -9 -12 -12 -12
-13 -17 -19 -19 -21 -23 -24 -25 -25 -26 -26 -27 -28 -29 -28 -29 -30 -31 -29 -29 -21 -12 -8 -6 -4 -3 -7 -8 -8 -5 -3 -5 -7 -9 -8 -8 -7 -10 -11 -8 -7 -9 -6 -8 -10 -13 -12
-15 -20 -21 -23 -23 -24 -24 -25 -25 -25 -25 -26 -27 -26 -26 -28 -28 -29 -30 -26 -13 -5 -15 -0 -5 -3 -6 -4 -13 -8 -5 -4 -5 -7 -8 -8 -8 -7 -8 -6 -2 -5 -7 -8 -9 -12 -12
-18 -20 -22 -22 -23 -23 -23 -23 -23 -23 -24 -25 -27 -25 -27 -26 -21 -27 -31 -22 -17 -8 -13 -6 -4 -3 -1 -2 -10 -5 -11 -8 -6 -5 -7 -5 -5 -5 -7 -8 -7 -8 -8 -8 -9 -12 -13
-19 -20 -20 -21 -23 -23 -23 -22 -22 -23 -23 -24 -27 -27 -27 -25 -15 -19 -25 -13 -1 -4 -0 -5 -1 -2 -4 -2 -2 -6 -6 -5 -7 -6 -7 -5 -4 -6 -7 -7 -7 -6 -5 -5 -8 -11 -12
-19 -18 -15 -19 -22 -22 -22 -22 -22 -23 -24 -24 -25 -28 -27 -24 -17 -19 -12 -2 -1 1 1 -8 -1 -4 -6 -3 -0 -4 -3 -3 -4 -5 -5 -4 -6 -4 -5 -5 -5 -5 -5 -6 -7 -11 -12
-16 -19 -17 -20 -21 -21 -22 -21 -23 -24 -24 -25 -25 -25 -24 -19 -14 -15 -13 -3 1 1 -6 -8 -6 -5 -3 -3 -2 -3 -1 -1 -2 -4 -5 -4 -5 -5 -3 -2 -3 -2 -5 -6 -8 -8 -5
-17 -19 -21 -21 -22 -22 -22 -23 -23 -24 -25 -25 -24 -21 -13 -12 -9 -9 -8 -6 1 -0 -12 -8 -6 -7 -3 -1 0 -1 -2 -2 0 -2 -5 -4 -4 -4 -2 -3 -3 -2 -4 -4 -6 -4 -4
-19 -21 -21 -22 -21 -22 -23 -23 -23 -24 -25 -25 -22 -15 -10 -10 -8 -8 -8 -9 -2 -6 -23 -3 -5 -4 -3 -2 -1 -1 0 -0 -3 -1 -4 -3 -3 -3 -4 -4 -2 -2 -1 1 1 -2 1
-18 -19 -20 -21 -21 -22 -23 -23 -24 -25 -25 -24 -15 -8 -7 -7 -7 -7 -9 -9 -6 -6 -5 -3 -2 -3 -2 -3 -2 0 2 2 -0 -1 -2 -2 -1 -3 -3 -1 -1 -1 0 3 2 1 5
-16 -17 -18 -20 -21 -22 -22 -23 -24 -24 -25 -22 -10 -6 -6 -7 -7 -7 -10 -7 -6 -4 -2 -4 -3 -2 2 -3 -4 -3 3 4 1 3 0 -0 0 1 -1 -3 1 3 3 4 -0 3 4
-14 -16 -17 -19 -21 -21 -22 -22 -23 -24 -25 -22 -12 -7 -7 -10 -9 -8 -10 -4 -4 -2 -3 -1 -2 -1 -1 -3 -2 1 3 4 4 5 4 1 2 0 1 -0 0 1 5 3 5 3 4
-12 -14 -16 -18 -20 -20 -21 -22 -22 -24 -24 -22 -15 -7 -6 -10 -8 -9 -3 -3 -3 -4 -3 -2 -1 -1 1 0 3 3 3 3 5 4 4 1 1 0 1 2 2 3 3 6 5 6 -0
-10 -12 -15 -17 -18 -19 -20 -21 -22 -23 -24 -22 -14 -3 -7 -8 -8 -6 -3 -2 -2 -3 -2 -2 -2 -0 -0 2 2 4 4 3 3 4 3 4 1 1 1 4 4 5 5 4 4 2 -1
-9 -11 -14 -16 -17 -19 -21 -21 -21 -23 -23 -21 -11 -4 -3 -7 -3 -2 -1 -0 -1 -2 -2 -2 0 1 2 1 2 3 4 3 3 3 5 5 4 4 4 4 3 2 4 4 7 5 3
-8 -9 -12 -15 -17 -20 -21 -21 -21 -22 -22 -17 -6 -2 -3 -5 -3 -3 -1 -2 -1 -1 -1 -0 1 0 -0 1 2 2 3 2 2 2 5 5 4 5 5 4 3 4 4 2 2 4 6
-8 -8 -11 -14 -16 -19 -20 -21 -21 -21 -20 -15 -8 -5 -4 -5 -4 -3 -2 -1 -1 -3 -1 -2 1 -1 -0 0 1 1 1 1 -1 0 3 5 7 4 5 5 4 5 6 4 5 5 4
-7 -7 -9 -12 -15 -18 -20 -21 -20 -20 -18 -13 -6 -2 -2 -3 -3 -4 -4 -2 -2 -1 -3 -1 -1 -0 0 -0 0 1 -2 -1 -3 -0 2 5 6 6 6 6 5 5 5 7 5 5 5
-6 -7 -8 -10 -14 -18 -20 -21 -20 -18 -17 -14 -5 -4 -4 -4 -4 -4 -4 -3 -2 -1 -2 -1 -1 -1 -0 1 -0 1 1 -1 -1 -1 2 3 7 6 6 4 5 5 4 4 5 4 4
-6 -6 -8 -10 -14 -20 -20 -22 -20 -16 -15 -7 -4 -4 -4 -3 -3 -4 -3 -3 -1 -2 -4 -3 -2 -1 -0 -1 -2 -2 -1 -1 -1 -1 0 1 6 7 7 4 4 3 3 2 4 2 2
-4 -5 -7 -10 -14 -19 -21 -22 -21 -13 -11 -9 -7 -6 -5 -5 -3 -3 -3 -4 -3 -3 -2 -5 -4 -0 -2 -3 -3 -1 1 0 0 0 -1 1 4 6 6 3 5 2 -2 -1 2 2 1
-6 -7 -8 -11 -16 -19 -20 -20 -21 -13 -8 -7 -6 -7 -5 -6 -4 -5 -3 -2 -5 -6 -3 -2 -2 -5 -4 -2 1 2 3 4 4 2 1 -0 2 6 6 3 2 -1 -4 -1 0 -2 0
-7 -9 -9 -12 -17 -20 -21 -20 -20 -17 -8 -7 -7 -6 -5 -5 -7 -6 -4 -4 -3 -4 -4 -4 -6 -6 -2 -0 1 2 5 5 6 5 2 2 2 5 4 3 3 -0 -4 -7 -5 -3 -6
-9 -10 -11 -14 -18 -19 -19 -19 -20 -20 -10 -6 -6 -6 -4 -5 -6 -5 -5 -3 -3 -3 -4 -5 -4 -5 -2 -2 1 2 2 1 5 6 7 5 5 6 4 2 2 -1 -3 -7 -5 -4 -4
-9 -9 -11 -13 -13 -14 -16 -18 -21 -22 -17 -8 -7 -6 -5 -5 -6 -7 -6 -6 -4 -4 -6 -7 -5 -3 -3 -2 -1 -0 0 0 1 2 5 5 5 5 4 2 3 -2 -8 -8 -4 -4 -5
-8 -9 -10 -10 -10 -11 -14 -17 -21 -24 -18 -7 -7 -6 -4 -5 -6 -6 -6 -7 -8 -6 -4 -3 -3 -4 -3 -3 -3 -2 -1 1 1 1 3 3 1 2 2 3 -1 -2 -2 -4 -5 -5 -6
Wind_Speed
3 4 4 5 6 7 9 10 11 12 13 14 16 17 19 20 21 21 21 22 22 19 18 17 17 15 13 5 7 10 12 13 11 11 10 10 8 2 2 4 2 3 2 6 7 9 13
3 4 5 6 6 7 9 11 12 12 13 15 17 19 20 20 21 20 20 21 22 21 18 17 18 17 11 4 6 9 11 10 8 11 8 8 5 4 6 4 3 3 9 7 5 8 7
2 3 4 5 6 7 8 9 11 12 13 15 16 18 19 20 20 19 18 16 15 17 15 15 15 16 14 10 7 10 13 12 8 10 9 7 5 0 5 5 6 5 5 4 1 2 2
2 3 3 5 6 7 8 9 10 11 13 15 16 18 20 23 24 23 22 18 14 10 10 9 11 11 6 7 6 8 9 12 9 7 7 8 2 3 3 12 6 5 4 1 2 6 4
4 4 4 4 5 5 7 8 9 10 13 15 18 21 24 27 29 26 22 17 10 7 8 7 8 8 5 6 12 11 17 9 6 5 7 7 2 5 5 5 4 4 3 4 4 10 5
4 3 3 3 4 5 7 8 10 13 15 18 21 23 26 28 29 29 23 13 6 8 12 6 12 5 14 19 19 13 11 11 4 6 6 2 4 4 4 3 6 3 4 4 5 5 4
3 4 3 4 5 7 8 11 13 15 18 20 21 22 24 26 24 30 27 6 4 1 19 9 7 9 16 26 12 21 14 11 5 4 0 5 6 1 7 2 3 1 2 3 3 4 5
2 3 5 6 7 9 11 13 14 16 18 20 21 21 22 23 19 24 23 15 12 6 6 13 11 16 24 26 11 26 20 7 5 2 2 5 1 7 3 4 6 2 4 5 2 1 4
5 4 5 7 9 10 12 13 14 16 17 19 20 21 22 20 9 19 23 21 9 9 1 8 10 19 25 20 8 18 19 11 3 3 2 5 5 4 3 1 4 5 5 5 4 2 1
5 5 5 7 8 10 12 13 14 15 16 18 19 20 21 19 7 21 22 16 10 7 4 14 11 13 23 18 3 15 21 13 4 2 2 4 5 3 4 4 5 8 9 7 5 4 3
4 6 6 7 9 10 11 13 14 15 16 17 17 18 20 19 15 23 20 13 9 4 4 14 10 10 21 16 14 8 22 4 5 5 2 7 4 4 2 2 2 8 5 7 4 4 3
4 5 6 7 9 10 12 13 13 14 15 15 16 15 15 16 18 19 18 7 6 6 3 8 10 13 14 16 15 19 12 12 8 3 3 7 3 2 4 3 6 3 5 7 4 2 2
3 4 5 7 9 10 12 13 14 14 14 14 13 13 15 18 22 21 15 2 5 7 6 9 8 10 11 11 9 9 7 9 5 7 3 1 2 3 1 4 7 8 5 3 4 3 4
4 4 5 7 8 10 11 13 14 14 13 11 9 11 14 16 17 19 8 6 10 5 4 4 6 11 5 11 6 10 9 9 6 8 3 2 5 5 7 2 6 3 1 3 5 0 4
3 4 5 7 8 10 11 13 14 14 14 11 7 7 13 16 17 15 3 8 5 1 4 6 8 6 6 7 5 7 6 4 5 7 4 2 0 4 5 2 3 2 4 1 3 2 2
3 4 5 7 8 9 11 13 14 14 14 11 7 5 17 17 16 11 8 5 2 2 4 3 6 6 5 8 7 7 4 3 8 10 7 5 1 2 3 4 10 4 5 2 3 1 3
3 4 5 6 8 9 10 12 14 14 13 10 6 4 17 14 12 16 5 3 1 5 7 1 3 4 4 4 5 5 5 4 11 11 15 2 2 4 2 1 4 1 2 5 5 3 3
1 3 4 5 7 9 11 13 14 14 13 10 6 4 16 12 9 6 3 2 4 6 11 7 3 4 3 4 4 3 4 5 20 16 8 3 1 1 1 0 1 1 4 5 3 3 2
1 3 4 5 7 9 11 13 14 15 15 10 5 5 17 9 4 3 3 4 4 7 5 5 3 2 3 3 5 4 6 10 23 15 6 5 2 2 4 3 3 2 3 4 4 3 6
1 2 4 4 6 8 10 11 12 12 13 10 4 3 8 14 10 5 3 3 5 6 1 7 3 5 6 4 3 6 7 7 24 16 19 3 3 4 4 2 3 3 5 6 5 2 4
3 1 3 3 5 7 10 10 11 10 11 7 6 4 3 2 8 5 2 2 3 6 5 8 4 5 6 5 6 3 6 10 15 8 9 6 4 4 8 10 6 6 5 7 8 8 6
5 2 2 3 6 7 8 9 10 10 10 12 5 4 4 3 3 3 4 4 4 5 3 2 3 11 6 4 6 17 11 7 6 8 6 8 4 2 6 11 9 6 9 11 10 3 11
6 4 1 2 4 5 7 9 9 9 9 8 7 6 2 3 2 1 1 3 3 6 4 3 7 5 5 5 20 34 37 36 27 12 6 5 4 3 4 5 3 4 9 9 5 5 6
8 5 3 1 3 5 6 9 9 8 9 9 7 5 3 0 1 1 2 5 2 4 4 15 16 3 11 34 37 30 31 31 27 27 24 7 5 3 3 5 2 7 3 5 9 6 12
9 6 5 2 3 4 6 8 9 6 6 5 5 3 3 0 1 5 2 2 8 10 5 9 7 17 26 18 5 8 4 3 10 12 20 25 6 3 0 3 6 5 2 3 5 6 7
9 8 6 4 3 4 6 6 8 6 4 3 3 3 1 1 2 4 2 6 3 4 6 5 18 17 10 3 3 4 4 4 4 4 17 15 13 3 1 1 2 5 5 5 4 4 4
10 8 7 5 4 3 4 6 6 7 3 2 2 2 2 3 4 7 5 3 4 2 3 7 11 9 8 3 2 3 4 9 4 5 3 5 5 4 1 2 7 6 9 6 2 5 8
13 10 8 7 5 3 3 4 7 7 4 2 1 1 4 4 12 17 18 16 9 7 2 11 11 3 5 5 2 2 3 4 5 9 5 3 4 3 2 2 5 2 6 3 5 6 6
16 13 10 8 5 3 2 4 7 7 3 4 2 2 3 8 12 19 24 27 24 13 12 5 4 11 5 2 3 2 2 3 6 5 7 1 2 3 7 6 5 8 10 8 5 7 5
Wind_Direction
88 61 64 39 24 18 13 12 11 9 3 355 356 351 345 340 339 339 333 325 322 321 316 316 315 320 324 307 265 260 267 282 299 312 320 321 293 241 162 109 77 85 115 69 116 133 119
30 37 22 14 12 16 12 10 8 6 1 357 355 349 343 341 339 341 333 326 321 320 317 313 318 321 329 295 295 282 274 273 293 318 332 332 294 283 116 66 66 71 91 97 100 123 123
335 7 10 1 15 9 7 11 8 -0 357 358 355 347 342 343 342 349 339 330 318 312 310 304 309 312 314 311 322 297 283 276 307 325 343 336 326 27 123 86 110 92 73 53 90 143 121
3 39 31 12 12 12 12 12 9 2 358 356 354 349 350 353 351 356 350 344 335 318 311 308 303 310 287 331 336 351 298 272 293 311 340 337 308 131 78 116 42 68 59 119 243 155 162
35 44 41 30 27 22 13 10 12 6 360 360 359 356 356 356 350 356 353 347 347 355 352 337 341 340 1 0 354 1 9 340 292 293 315 302 261 85 112 85 30 3 232 202 306 194 154
60 45 32 39 39 32 19 12 9 7 5 6 4 360 356 355 349 352 360 354 15 43 358 30 17 1 19 343 317 335 360 353 309 319 314 8 65 67 39 83 249 246 246 242 231 219 154
59 71 47 36 35 24 24 17 13 9 5 4 4 0 357 354 355 354 5 10 13 25 42 51 35 33 348 2 29 21 347 343 316 272 265 30 61 200 226 177 55 138 216 260 228 227 154
90 60 46 31 26 20 18 15 10 8 4 0 2 359 358 354 11 6 8 62 40 346 333 27 41 21 12 358 349 16 14 21 13 267 92 22 294 225 188 233 248 268 329 288 258 71 181
62 46 27 28 22 16 15 12 7 5 3 360 1 359 359 357 9 14 30 45 18 356 316 13 17 19 5 343 347 337 6 347 22 15 309 169 233 122 195 272 258 236 209 229 251 84 271
54 49 37 25 20 15 9 7 3 1 2 -0 2 0 2 12 14 11 22 17 9 4 67 348 357 14 1 352 345 0 356 332 331 306 257 229 269 240 307 250 221 264 204 212 157 128 232
48 39 25 22 14 13 6 4 359 359 360 1 4 8 13 24 22 17 356 355 356 345 28 323 344 342 3 26 320 326 352 350 238 230 154 242 318 305 314 328 228 248 151 143 130 109 85
45 30 20 12 12 8 3 359 358 359 0 3 8 12 18 19 13 2 349 337 341 42 278 345 347 339 1 359 352 341 347 355 271 217 235 230 248 211 197 213 75 335 57 51 55 71 24
44 28 10 10 9 6 4 358 357 359 2 8 15 19 15 12 359 353 351 17 39 86 319 344 331 334 335 345 331 4 330 348 1 339 315 296 197 315 263 61 4 24 40 7 358 10 226
40 16 6 6 5 6 2 358 359 359 5 15 22 26 18 13 354 348 9 54 66 266 337 324 316 318 35 8 336 326 349 360 2 356 300 141 332 0 343 103 156 114 3 139 202 206 288
25 9 5 7 5 4 2 360 359 0 5 12 14 10 20 10 358 358 23 52 168 247 312 315 317 24 345 350 4 336 344 311 6 12 0 359 291 330 26 5 123 2 49 357 63 54 23
23 5 7 4 3 4 4 0 1 2 4 5 5 6 15 11 9 23 67 113 116 243 312 345 22 16 335 331 355 346 307 358 343 358 337 286 44 307 309 34 23 138 127 45 41 313 288
14 10 5 3 5 4 6 3 5 4 5 5 15 43 9 8 29 53 85 91 331 341 360 348 359 323 312 341 323 303 296 337 13 338 329 312 158 288 12 76 166 30 63 53 103 145 163
11 10 2 358 2 7 9 8 7 8 9 10 40 46 12 16 48 46 54 8 344 339 10 31 61 7 338 309 285 287 288 319 14 347 326 319 289 299 270 63 270 90 176 146 124 224 108
63 14 12 3 10 9 11 12 11 11 18 25 56 30 28 27 79 14 24 8 45 14 3 23 21 54 305 275 314 274 320 318 356 345 350 332 316 1 348 353 18 193 168 93 86 101 192
236 5 14 13 14 12 14 17 16 19 25 33 51 38 33 54 64 93 34 32 6 360 260 355 291 51 335 309 255 292 301 309 332 314 311 275 251 213 216 153 150 230 185 168 140 154 162
228 302 3 15 9 12 18 20 19 26 29 40 49 67 39 12 20 33 41 32 2 5 358 1 14 32 341 303 300 244 325 321 324 310 337 1 241 213 251 260 253 222 236 218 200 193 182
214 228 312 8 18 19 20 22 26 32 34 51 71 54 51 58 21 24 16 1 36 338 315 356 29 321 300 257 267 293 302 297 259 305 336 2 299 271 268 253 249 270 250 231 212 193 251
215 216 239 7 26 31 25 25 30 33 39 69 84 74 71 15 21 59 54 349 46 3 288 290 324 312 298 273 308 287 275 266 251 268 301 310 279 302 271 320 298 328 226 210 172 197 178
205 211 209 208 51 43 35 27 29 40 50 81 85 66 57 61 21 30 340 328 315 319 261 291 309 283 295 313 308 293 264 251 247 242 227 247 266 290 284 0 14 243 216 198 197 226 210
206 205 200 168 85 61 48 34 25 40 64 74 84 76 55 351 345 304 344 334 318 317 289 290 311 321 321 317 295 310 323 242 230 223 211 214 211 280 285 246 286 316 31 146 173 291 215
203 198 192 168 111 83 56 40 31 22 47 58 65 78 61 36 275 258 316 302 293 322 327 275 319 333 335 292 300 291 326 320 310 322 196 192 209 255 283 356 270 249 297 358 137 313 332
198 190 179 159 130 96 64 40 28 11 338 37 65 115 88 275 293 255 241 278 307 0 275 306 338 329 354 346 314 336 315 330 322 313 172 162 183 192 322 314 290 265 290 332 57 246 321
197 189 177 161 144 109 56 26 14 1 317 265 197 234 247 263 281 270 252 260 254 259 167 305 337 348 340 12 2 335 310 321 302 317 274 161 143 167 177 256 286 279 341 30 236 308 320
198 191 183 170 153 117 45 6 1 0 318 261 328 253 267 263 266 277 276 270 263 274 257 248 273 341 291 10 5 324 295 275 340 299 327 312 211 208 179 213 252 295 284 295 291 298 311
Height
1546 1547 1546 1546 1545 1543 1541 1540 1538 1537 1535 1534 1532 1529 1525 1522 1519 1517 1514 1511 1508 1506 1504 1502 1501 1499 1498 1498 1496 1494 1495 1495 1495 1493 1492 1492 1492 1492 1494 1495 1496 1498 1502 1503 1503 1504 1506
1548 1546 1546 1546 1545 1543 1542 1541 1539 1537 1535 1533 1531 1528 1524 1521 1518 1516 1512 1508 1504 1502 1501 1498 1497 1496 1496 1498 1494 1493 1493 1494 1494 1493 1492 1492 1492 1492 1493 1496 1497 1501 1502 1505 1506 1507 1509
1548 1546 1546 1547 1545 1544 1543 1541 1540 1538 1535 1533 1531 1527 1524 1521 1517 1513 1509 1506 1503 1500 1498 1497 1496 1495 1495 1495 1493 1493 1491 1492 1493 1492 1492 1492 1492 1493 1495 1498 1501 1502 1507 1507 1508 1509 1510
1548 1546 1546 1547 1546 1545 1543 1542 1540 1538 1536 1534 1531 1527 1523 1519 1514 1511 1506 1502 1500 1498 1497 1496 1495 1495 1493 1494 1493 1492 1490 1490 1493 1493 1493 1493 1492 1493 1495 1500 1502 1506 1509 1515 1508 1509 1511
1549 1547 1547 1548 1547 1546 1545 1543 1541 1539 1537 1535 1531 1525 1521 1517 1512 1509 1505 1500 1497 1497 1497 1495 1495 1495 1496 1495 1493 1493 1492 1491 1492 1493 1493 1493 1493 1495 1499 1505 1513 1512 1517 1517 1511 1508 1510
1550 1550 1550 1550 1548 1547 1546 1544 1542 1540 1536 1533 1530 1525 1521 1517 1512 1508 1504 1499 1497 1498 1497 1496 1496 1497 1499 1499 1494 1493 1493 1492 1492 1493 1494 1494 1495 1501 1505 1508 1519 1515 1518 1516 1514 1508 1510
1552 1551 1552 1551 1549 1548 1546 1544 1542 1540 1537 1534 1530 1527 1522 1519 1513 1508 1503 1499 1501 1502 1501 1506 1509 1509 1505 1500 1494 1495 1492 1492 1493 1494 1497 1497 1505 1510 1506 1504 1506 1507 1512 1511 1510 1505 1509
1553 1552 1552 1551 1550 1549 1547 1545 1543 1540 1537 1534 1531 1528 1524 1520 1517 1512 1508 1503 1513 1517 1511 1509 1509 1509 1506 1502 1499 1496 1495 1496 1495 1498 1497 1503 1509 1501 1501 1501 1504 1505 1509 1510 1506 1505 1510
1554 1553 1553 1551 1550 1549 1548 1546 1544 1541 1539 1536 1533 1530 1526 1521 1518 1516 1513 1515 1515 1515 1517 1512 1512 1511 1510 1507 1505 1500 1500 1498 1498 1500 1500 1505 1501 1497 1499 1501 1504 1504 1508 1507 1505 1506 1506
1554 1554 1553 1552 1551 1550 1549 1547 1544 1542 1540 1537 1534 1531 1527 1522 1522 1518 1517 1518 1517 1516 1522 1523 1516 1517 1514 1506 1506 1504 1504 1504 1500 1500 1499 1501 1496 1497 1499 1502 1501 1505 1494 1496 1504 1509 1516
1555 1555 1554 1553 1552 1550 1550 1547 1545 1543 1541 1538 1536 1533 1529 1525 1526 1522 1523 1519 1517 1518 1554 1530 1525 1524 1520 1520 1517 1505 1504 1500 1500 1499 1499 1502 1497 1496 1498 1499 1499 1497 1489 1494 1501 1509 1511
1556 1556 1555 1555 1553 1552 1550 1548 1546 1544 1542 1539 1536 1534 1531 1530 1526 1524 1521 1519 1519 1535 1561 1537 1533 1530 1525 1521 1517 1512 1505 1501 1498 1496 1496 1497 1493 1494 1493 1494 1495 1498 1496 1499 1508 1513 1536
1557 1556 1556 1555 1554 1553 1551 1549 1547 1545 1543 1540 1537 1535 1533 1530 1527 1523 1520 1519 1538 1564 1551 1551 1545 1539 1535 1531 1523 1518 1515 1511 1513 1511 1504 1495 1494 1492 1492 1495 1494 1502 1507 1532 1531 1541 1523
1558 1557 1557 1556 1555 1554 1552 1551 1548 1546 1543 1541 1539 1537 1535 1533 1529 1524 1520 1523 1566 1565 1558 1552 1549 1541 1539 1538 1532 1525 1522 1522 1513 1513 1512 1509 1513 1499 1495 1494 1502 1507 1510 1528 1545 1534 1524
1558 1558 1558 1557 1556 1555 1553 1551 1549 1547 1544 1542 1540 1539 1537 1534 1529 1525 1523 1559 1574 1562 1560 1557 1549 1548 1547 1544 1543 1534 1529 1527 1523 1521 1528 1527 1506 1500 1498 1495 1498 1508 1518 1514 1520 1526 1539
1560 1559 1558 1558 1557 1555 1553 1551 1549 1547 1544 1543 1541 1539 1538 1536 1531 1527 1531 1562 1562 1561 1559 1557 1557 1554 1555 1550 1547 1542 1532 1526 1526 1523 1522 1520 1520 1504 1501 1498 1501 1502 1511 1520 1528 1531 1546
1560 1560 1559 1558 1557 1556 1554 1553 1550 1548 1545 1543 1542 1542 1542 1538 1535 1533 1559 1563 1562 1560 1558 1558 1557 1557 1556 1555 1549 1546 1535 1528 1526 1523 1519 1516 1519 1510 1504 1508 1512 1515 1519 1526 1532 1549 1551
1560 1560 1560 1559 1559 1558 1556 1554 1552 1549 1547 1544 1544 1547 1546 1541 1542 1552 1564 1563 1562 1561 1559 1558 1558 1559 1559 1556 1551 1548 1539 1534 1532 1530 1526 1518 1520 1521 1509 1507 1505 1505 1511 1518 1524 1536 1545
1561 1561 1560 1560 1559 1559 1557 1555 1554 1551 1548 1547 1549 1553 1551 1546 1561 1566 1563 1563 1563 1562 1562 1561 1561 1561 1560 1559 1556 1547 1542 1534 1534 1532 1528 1522 1523 1525 1512 1509 1507 1508 1509 1519 1526 1527 1526
1561 1561 1561 1561 1560 1560 1558 1557 1556 1554 1552 1551 1554 1558 1557 1556 1561 1564 1567 1567 1566 1564 1563 1563 1562 1561 1561 1558 1554 1550 1545 1535 1534 1530 1526 1521 1516 1517 1515 1504 1509 1511 1507 1512 1515 1524 1525
1562 1561 1561 1561 1562 1561 1560 1559 1558 1556 1555 1555 1558 1565 1567 1570 1568 1568 1568 1570 1569 1568 1565 1564 1563 1565 1567 1561 1555 1547 1542 1538 1534 1527 1524 1523 1517 1512 1507 1502 1502 1500 1500 1505 1513 1505 1510
1561 1561 1562 1563 1562 1562 1561 1561 1559 1558 1558 1558 1563 1567 1569 1570 1570 1569 1570 1573 1572 1571 1569 1566 1567 1565 1564 1563 1558 1552 1548 1544 1542 1529 1526 1525 1515 1511 1506 1497 1496 1496 1493 1494 1500 1502 1503
1561 1561 1562 1563 1563 1563 1563 1562 1561 1561 1560 1561 1566 1568 1569 1573 1572 1572 1574 1574 1574 1572 1568 1567 1567 1566 1561 1557 1554 1547 1542 1537 1537 1535 1532 1533 1519 1511 1502 1495 1492 1497 1489 1485 1490 1491 1489
1560 1561 1563 1563 1564 1565 1565 1564 1563 1563 1564 1565 1567 1569 1570 1575 1573 1573 1574 1574 1573 1574 1572 1565 1565 1564 1559 1552 1541 1527 1521 1520 1522 1521 1530 1525 1522 1515 1507 1498 1509 1482 1472 1474 1479 1478 1478
1559 1561 1563 1564 1564 1566 1566 1565 1565 1565 1566 1567 1569 1571 1572 1575 1574 1573 1573 1573 1572 1570 1569 1567 1563 1563 1557 1549 1540 1525 1513 1508 1504 1509 1514 1520 1524 1518 1511 1507 1492 1473 1473 1476 1477 1472 1468
1558 1560 1562 1564 1565 1566 1567 1567 1567 1566 1567 1569 1570 1571 1573 1574 1574 1574 1574 1574 1573 1569 1568 1564 1562 1559 1555 1551 1545 1531 1517 1509 1501 1499 1504 1514 1519 1517 1515 1506 1496 1481 1472 1470 1471 1485 1466
1557 1560 1562 1564 1566 1567 1568 1568 1568 1568 1568 1570 1570 1572 1574 1574 1573 1573 1573 1573 1572 1571 1570 1566 1562 1558 1555 1555 1548 1542 1532 1529 1510 1502 1499 1506 1510 1511 1517 1521 1496 1476 1470 1469 1480 1487 1467
1556 1559 1562 1564 1566 1567 1568 1569 1569 1568 1567 1569 1571 1571 1574 1573 1571 1570 1570 1570 1570 1570 1572 1566 1566 1561 1558 1557 1555 1554 1547 1539 1533 1519 1500 1498 1504 1507 1514 1515 1506 1474 1471 1473 1476 1469 1467
1555 1558 1561 1564 1566 1567 1568 1568 1568 1568 1567 1568 1570 1571 1572 1573 1569 1567 1565 1565 1565 1566 1568 1567 1566 1565 1563 1562 1560 1556 1552 1545 1536 1528 1502 1499 1498 1498 1496 1491 1475 1473 1472 1471 1469 1468 1467